User: anonymous   Login
Location: Alsip
(41.6689°N, 87.7387°W)
Time: 07:25:41
(UTC+00:00)
Language:

Cosmos 1464 Rocket - Orbit

View from above orbital plane
View from above orbital plane
View from above satellite
View from above satellite

Ground track
Ground track

The orbit data is extracted from the following two-line orbital elements,

1 14085U 83048B   20272.77707191 -.00000066 +00000-0 -83183-4 0  9994
2 14085 082.9393 279.3588 0033225 353.2842 006.7864 13.76297510875415
Epoch (UTC): 28 September 2020 18:38:59
Eccentricity: 0.0033225
inclination: 82.9393°
perigee height: 952 km
apogee height: 1001 km
right ascension of ascending node: 279.3588°
argument of perigee: 353.2842°
revolutions per day: 13.76297510
mean anomaly at epoch: 6.7864°
orbit number at epoch: 87541

The dashed part of the orbit path shows where the satellite is in the earth's shadow,  

DLR